Regional Weather Roundup
Issued by NWS

Home | Current Version | Previous Version | Graphics & Text | Print | Product List | Glossary On
Versions: 1 2 3 4 5 6 7 8 9 10 11 12 13 14 15 16 17 18 19 20 21 22 23 24 25 26 27 28 29 30 31 32 33 34 35 36 37 38 39 40 41 42 43 44 45 46 47 48 49 50
000
ASUS45 KTFX 180004
RWRMT
MONTANA HOURLY WEATHER ROUNDUP
NATIONAL WEATHER SERVICE GREAT FALLS MT
504 PM MST WED DEC 17 2014

NOTE: "FAIR" INDICATES FEW OR NO CLOUDS BELOW 12000 FEET WITH NO
SIGNIFICANT WEATHER AND/OR OBSTRUCTIONS TO VISIBILITY.

* THESE STATIONS ARE NOT UNDER NWS QUALITY CONTROL. THEY DO NOT
   REPORT WEATHER SUCH AS PRECIPITATION OR FOG.

MTZ001>007-043-180100-
WEST OF THE DIVIDE
CITY           SKY/WX    TMP DP  RH WIND       PRES   REMARKS
KALISPELL      PTCLDY    30  25  82 CALM      29.94R
MISSOULA       PTCLDY    32  23  69 CALM      29.95R
BUTTE          CLEAR     25  19  78 CALM      29.90S
MULLAN PASS    CLOUDY    27  25  92 S6        29.86R WCI  20
* ANACONDA     PTCLDY    34  21  59 S8         N/A   WCI  27
* ESSEX        N/A       30  27  89 SW1        N/A
* LINCOLN      N/A       33  25  72 S6         N/A   WCI  27
* LOOKOUT PASS N/A       30  27  89 N/A        N/A
* POLSON       N/A       28  26  92 N/A        N/A
* RONAN APT    PTCLDY    32  28  85 N/A        N/A
* SEELEY LAKE  N/A       30  24  78 N/A        N/A
* THOMP F APT  PTCLDY    26  20  78 SE3        N/A
$$

MTZ008-052>055-180100-
SOUTHWEST MONTANA
CITY           SKY/WX    TMP DP  RH WIND       PRES   REMARKS
BOZEMAN        CLEAR     27  25  92 S5        29.92S WCI  21
DILLON         PTCLDY    25  18  75 S8        29.91S WCI  16
* W YELLOWSTON CLEAR     24  20  85 SW2        N/A
* THREE FORKS  CLEAR     32   7  35 N/A        N/A
* BOULDER HILL N/A       27  20  75 S6         N/A   WCI  20
* MONIDA PASS  N/A       20  18  92 SE9        N/A   WCI  10
* RAYNOLDS PAS N/A       20   3  47 SE7        N/A   WCI  11
* WHITEHALL    N/A       33  23  67 SW7G16     N/A   WCI  27
* WISE RIVER   N/A       25  19  78 S3         N/A
$$

MTZ009>010-012-014-046-048-049-054-180100-
EAST SLOPES AND CENTRAL MONTANA
CITY           SKY/WX    TMP DP  RH WIND       PRES   REMARKS
GREAT FALLS    CLEAR     32  27  82 SW9       29.85R WCI  24
HELENA         CLEAR     28  25  89 CALM      29.91S
* DEARBORN     N/A       36  27  70 SW2G7      N/A
* EAST GLACIER N/A       32  22  67 W17        N/A   WCI  21
* MONARCH      N/A       26  13  58 SW5        N/A   WCI  20
* PENDROY      N/A       26  20  78 W1         N/A
* ROGERS PASS  N/A       29  22  75 NW1G6      N/A
* SWEET GRASS  N/A       21  21 100 S12        N/A   WCI   9
$$

MTZ011-013-016-021-035-040-045-047-050-051-180100-
NORTH CENTRAL MONTANA
CITY           SKY/WX    TMP DP  RH WIND       PRES   REMARKS
HAVRE          CLOUDY    27  23  85 E10       29.92R WCI  18
LEWISTOWN      CLOUDY    34  30  85 E3        29.87R
* N BAR RANCH  CLOUDY    34  27  76 SW6       29.88R WCI  29
* CHESTER      N/A       30  24  78 SE1        N/A
* DENTON       N/A       32  31  96 SE2        N/A
* GEYSER       N/A       34  23  64 SW2        N/A
* JUDITH GAP   N/A       32  32 100 W4         N/A
* LOMA         N/A       30  27  89 NE8        N/A   WCI  22
$$

MTZ017>020-022>027-061-062-180100-
NORTHEAST MONTANA
CITY           SKY/WX    TMP DP  RH WIND       PRES   REMARKS
GLASGOW        CLOUDY    23  18  81 E10       29.99S WCI  13
GLENDIVE       CLOUDY    21  18  88 SE7       30.03R WCI  12
JORDAN         PTCLDY    27  21  78 SE7       29.96R WCI  19
SIDNEY         CLOUDY    21  16  81 SE9       30.09S WCI  11
WOLF POINT     CLOUDY    25  19  78 SE5       30.04S WCI  19
* BEAVER HILL  N/A       20  17  88 SE8        N/A   WCI  10
* CIRCLE       N/A       24  20  85 SE3        N/A
* LINDSAY DVD  N/A       20  18  92 SE4        N/A
* NAVAJO       N/A       17  15  92 S8G13      N/A   WCI   7
* SACO         N/A       23  19  85 E9         N/A   WCI  13
$$

MTZ028>042-056>058-180100-
SOUTHCENTRAL AND SOUTHEAST MONTANA
CITY           SKY/WX    TMP DP  RH WIND       PRES   REMARKS
BAKER          CLOUDY    19  18  96 SE12      30.00F WCI   6
BILLINGS       CLOUDY    32  23  69 SW15      29.92R WCI  22
LIVINGSTON     PTCLDY    34  21  59 W10       29.89R WCI  26
MILES CITY     CLOUDY    25  21  85 SE9       29.98S WCI  16
* LAUREL APT   CLOUDY    32  18  56 S7         N/A   WCI  25
* ROUNDUP APT  CLOUDY    32  27  82 N/A        N/A
* ALZADA       N/A       19  18  96 SE3        N/A
* HYSHAM       N/A       26  20  78 W3         N/A
* LAME DEER    N/A       26  25  96 N/A        N/A
* REED POINT   N/A       33  28  82 SE2        N/A
* ROSCOE HILL  N/A       29  15  56 SE9        N/A   WCI  21
$$

REGIONAL REPORTS...DAKOTAS
CITY           SKY/WX    TMP DP  RH WIND       PRES   REMARKS
WILLISTON      CLOUDY    19  12  74 SE10      30.10S WCI   8
DICKINSON      CLOUDY    18  12  77 SE14      30.06R WCI   4
BEACH          CLOUDY    19  19 100 SE13      30.03S WCI   6
CROSBY         CLOUDY    18  16  92 SE10      30.11F WCI   6
WATFORD CITY   CLOUDY    18  14  84 S10       30.08S WCI   6
BISMARCK       PTCLDY    10   9  96 SE7       30.20F WCI  -1
GRAND FORKS    CLEAR     12   9  88 E3        30.32S
FARGO          PTCLDY    14   9  80 N5        30.31F WCI   6
BUFFALO SD     PTCLDY    19  18  96 SE10      29.96R WCI   8
RAPID CITY     CLOUDY    23  19  85 NE9       30.01R WCI  13
$$

REGIONAL REPORTS...WYOMING/IDAHO/WASHINGTON
CITY           SKY/WX    TMP DP  RH WIND       PRES   REMARKS
GILLETTE       CLEAR     19  14  81 CALM      29.94R
SHERIDAN       CLEAR     16  12  84 SW5       29.94R WCI   8
CODY           PTCLDY    19  16  88 SE6       29.90S WCI  11
YELLOWSTONE LA PTCLDY    21  16  81 CALM      29.95R
SALMON         PTCLDY    28  21  75 E3        29.98R
MULLAN PASS    CLOUDY    27  25  92 S6        29.86S WCI  20
SAND POINT     CLOUDY    36  30  79 N3        29.95R
SPOKANE        CLOUDY    36  34  92 NE7       29.90S WCI  30
$$

REGIONAL REPORTS...SASKATCHEWAN
CITY           SKY/WX    TMP DP  RH WIND       PRES   REMARKS
SWIFT CURRENT  FOG       19  19 100 S18       29.90S VSB 2 1/4 WCI   4

$$



USA.gov is the U.S. government's official web portal to all federal, state and local government web resources and services.